Terminal Aerodrome Forecast
Issued by NWS

Home | Current Version | Previous Version | Text Only | Print | Product List | Glossary On
Versions: 1 2 3 4 5 6 7 8 9 10 11 12 13 14 15 16 17 18 19 20 21 22 23 24 25 26 27 28 29 30 31 32 33 34 35 36 37 38 39 40 41 42 43 44 45 46 47 48 49
000
FTUS41 KCTP 190910 AAB
TAFAOO
TAF AMD
KAOO 190910Z 1909/2006 18009G18KT P6SM SKC WS020/21040KT
     FM191100 19012G18KT 6SM BR OVC025
     FM192000 17012G20KT 4SM -SHRA VCTS OVC025CB
     FM200300 15006KT P6SM OVC050=

USA.gov is the U.S. government's official web portal to all federal, state and local government web resources and services.